Regional Weather Roundup
Issued by NWS

Home | Current Version | Previous Version | Text Only | Print | Product List | Glossary On
Versions: 1 2 3 4 5 6 7 8 9 10 11 12 13 14 15 16 17 18 19 20 21 22 23 24 25 26 27 28 29 30 31 32 33 34 35 36 37 38 39 40 41 42 43 44 45 46 47 48 49 50
000
ASUS44 KOUN 131600
RWROK

WEATHER ROUNDUP FOR OKLAHOMA
NATIONAL WEATHER SERVICE NORMAN OK
1000 AM CST SAT FEB 13 2016

NOTE: "FAIR" INDICATES FEW OR NO CLOUDS BELOW 12,000 FEET WITH NO
      SIGNIFICANT WEATHER AND/OR OBSTRUCTIONS TO VISIBILITY.

OKZ001>007-009>012-014-015-017-131700-
NORTHWEST OKLAHOMA AND THE PANHANDLE

CITY           SKY/WX    TMP DP  RH WIND       PRES   REMARKS
GAGE           SUNNY     34  24  67 SE14      30.36F WCI  25
GUYMON         SUNNY     35  29  78 S17G24    30.23F WCI  25
ENID/WOODRING  MOSUNNY   34  18  51 E12       30.46S WCI  25
$$

OKZ016-021>023-033>039-044-045-131700-
SOUTHWEST OKLAHOMA

CITY           SKY/WX    TMP DP  RH WIND       PRES   REMARKS
LAWTON/REGL    SUNNY     42  28  57 E8        30.42S
LAWTON/FT SILL SUNNY     42  29  60 E6        30.40S
FREDERICK      SUNNY     41  30  65 E9        30.38F
CLINTON        SUNNY     36  27  69 SE10      30.40F WCI  28
HOBART         SUNNY     38  28  67 E10       30.40F WCI  31
ALTUS AFB      SUNNY     40  28  60 SE9       30.40F WCI  35
$$

OKZ018>020-024>031-131700-
CENTRAL OKLAHOMA

CITY           SKY/WX    TMP DP  RH WIND       PRES   REMARKS
OKLAHOMA CITY  MOSUNNY   37  21  52 E12       30.42S WCI  29
OKC/WILEY POST SUNNY     36  20  52 E12       30.43F WCI  28
OKC/TINKER AFB SUNNY     37  20  50 E9        30.41F WCI  31
STILLWATER     CLOUDY    34  14  43 E14       30.46F WCI  25
GUTHRIE        SUNNY     35  17  47 E12       30.44F WCI  27
$$

OKZ008-013-054>072-131700-
NORTHEAST OKLAHOMA

CITY           SKY/WX    TMP DP  RH WIND       PRES   REMARKS
TULSA          MOSUNNY   36  12  37 E9        30.50F WCI  29
TULSA/JONES    SUNNY     36  12  37 E12       30.50F WCI  28
PONCA CITY     MOSUNNY   32   9  38 E10       30.47S WCI  24
BARTLESVILLE   CLOUDY    31   4  31 E13       30.53F WCI  21
MUSKOGEE       SUNNY     41  20  43 E12       30.50F
$$

OKZ032-040>043-046>053-073>077-131700-
SOUTH CENTRAL/SOUTHEAST OKLAHOMA

CITY           SKY/WX    TMP DP  RH WIND       PRES   REMARKS
MCALESTER      SUNNY     43  25  49 E8        30.45F
$$




USA.gov is the U.S. government's official web portal to all federal, state and local government web resources and services.